Date String (YYYY-MM-DD hh:mm:ss) UTC,Instrument flags,absolute air pressure of the measurement (hPa),sample flow rate (lpm),inlet stack bypass flow (lpm),air temperature of the measurement (°C),ambient temperature measured by the external sensor (°C),aerosol sample conditioner tube jacket temperature (°C),OPC LED temperature (°C),internal box temperature (°C),relative humidity of the measurement (%),span deviation,mass concentration of particles derived from Lorenz-Mie calculation of OPC scattering (μg/m³),mass concentration of particles derived from Lorenz-Mie calculation of OPC scattering (μg/m³),mass concentration of particles derived from Lorenz-Mie calculation of OPC scattering (μg/m³)
DateTimeUTC,F1_M11,P_M11,Q1_M11,Q2_M11,T1_M11,T2_M11,T3_M11,T4_M11,T5_M11,U1_M11,ZSPAN_M11,X2_M11,X0_M11,X1_M11
2024-04-30 04:00:00,SystemResetWarning,0823.0,4.99,000.00,026.0,025.3,000.0,034.4,027.8,015.8,0000.0,0003.16,0007.93,0001.67
2024-04-30 04:01:00,SystemResetWarning,0823.0,5.01,000.00,026.0,025.3,000.0,034.4,027.8,016.0,0000.0,0003.14,0007.43,0001.68
2024-04-30 04:02:00,SystemResetWarning,0822.9,5.01,000.00,026.0,025.3,000.0,034.4,027.8,015.9,0000.0,0003.16,0007.50,0001.69
2024-04-30 04:03:00,SystemResetWarning,0823.0,4.99,000.00,026.0,025.3,000.0,034.5,027.8,015.8,0000.0,0003.11,0007.60,0001.69
2024-04-30 04:04:00,SystemResetWarning,0823.0,4.99,000.00,026.0,025.3,000.0,034.5,027.9,015.9,0000.0,0003.11,0007.66,0001.69
2024-04-30 04:05:00,SystemResetWarning,0823.0,5.00,000.00,026.0,025.4,000.0,034.5,027.9,016.0,0000.0,0003.14,0007.73,0001.69
2024-04-30 04:06:00,SystemResetWarning,0823.0,5.01,000.00,026.1,025.4,000.0,034.5,027.9,015.4,0000.0,0003.13,0007.71,0001.68
2024-04-30 04:07:00,SystemResetWarning,0823.0,5.01,000.00,026.1,025.4,000.0,034.5,027.9,015.4,0000.0,0003.18,0007.85,0001.69
2024-04-30 04:08:00,SystemResetWarning,0823.1,4.98,000.00,026.1,025.4,000.0,034.5,027.9,015.4,0000.0,0003.20,0007.92,0001.67
2024-04-30 04:09:00,SystemResetWarning,0823.2,5.00,000.00,026.1,025.4,000.0,034.5,027.9,015.3,0000.0,0003.17,0007.42,0001.65
2024-04-30 04:10:00,SystemResetWarning,0823.0,5.01,000.00,026.1,025.4,000.0,034.5,027.9,015.5,0000.0,0003.17,0007.16,0001.65
2024-04-30 04:11:00,SystemResetWarning,0823.2,5.00,000.00,026.1,025.4,000.0,034.5,027.9,015.6,0000.0,0003.16,0007.15,0001.64
2024-04-30 04:12:00,SystemResetWarning,0823.1,4.98,000.00,026.1,025.4,000.0,034.5,027.9,015.8,0000.0,0003.20,0007.42,0001.64
2024-04-30 04:13:00,SystemResetWarning,0822.9,5.01,000.00,026.1,025.4,000.0,034.5,027.9,015.7,0000.0,0003.21,0007.51,0001.64
2024-04-30 04:14:00,SystemResetWarning,0822.9,5.01,000.00,026.1,025.4,000.0,034.6,027.9,015.5,0000.0,0003.19,0007.85,0001.64
2024-04-30 04:15:00,SystemResetWarning,0823.0,5.00,000.00,026.1,025.4,000.0,034.6,027.9,015.6,0000.0,0003.19,0007.76,0001.65
2024-04-30 04:16:00,SystemResetWarning,0822.8,4.98,000.00,026.1,025.4,000.0,034.6,028.0,015.4,0000.0,0003.17,0007.98,0001.63
2024-04-30 04:17:00,SystemResetWarning,0822.9,5.01,000.00,026.1,025.5,000.0,034.6,028.0,015.2,0000.0,0003.20,0009.48,0001.64
2024-04-30 04:18:00,SystemResetWarning,0823.1,5.01,000.00,026.1,025.5,000.0,034.6,028.0,015.5,0000.0,0003.21,0009.59,0001.65
2024-04-30 04:19:00,SystemResetWarning,0823.1,5.01,000.00,026.2,025.5,000.0,034.6,028.0,015.4,0000.0,0003.19,0009.58,0001.67
2024-04-30 04:20:00,SystemResetWarning,0823.0,5.00,000.00,026.2,025.5,000.0,034.6,028.0,015.2,0000.0,0003.22,0009.76,0001.69
2024-04-30 04:21:00,SystemResetWarning,0822.9,4.99,000.00,026.2,025.5,000.0,034.6,028.0,015.4,0000.0,0003.25,0009.84,0001.70
2024-04-30 04:22:00,SystemResetWarning,0823.0,5.00,000.00,026.2,025.5,000.0,034.6,028.0,015.4,0000.0,0003.27,0009.93,0001.72
2024-04-30 04:23:00,SystemResetWarning,0823.3,5.02,000.00,026.2,025.5,000.0,034.6,028.0,015.4,0000.0,0003.27,0009.86,0001.73
2024-04-30 04:24:00,SystemResetWarning,0822.9,5.00,000.00,026.2,025.5,000.0,034.6,028.0,015.2,0000.0,0003.24,0009.63,0001.73
2024-04-30 04:25:00,SystemResetWarning,0823.2,4.98,000.00,026.2,025.5,000.0,034.6,028.0,015.2,0000.0,0003.26,0009.32,0001.74
2024-04-30 04:26:00,SystemResetWarning,0823.1,5.00,000.00,026.2,025.5,000.0,034.6,028.0,015.1,0000.0,0003.21,0009.04,0001.73
2024-04-30 04:27:00,SystemResetWarning,0822.9,5.01,000.00,026.2,025.5,000.0,034.6,028.0,015.0,0000.0,0003.18,0008.94,0001.73
2024-04-30 04:28:00,SystemResetWarning,0823.1,5.01,000.00,026.2,025.5,000.0,034.6,028.0,014.9,0000.0,0003.15,0007.56,0001.72
2024-04-30 04:29:00,SystemResetWarning,0823.1,5.00,000.00,026.2,025.4,000.0,034.7,028.0,015.2,0000.0,0003.11,0006.82,0001.70
2024-04-30 04:30:00,SystemResetWarning,0822.9,4.98,000.00,026.2,025.4,000.0,034.7,028.0,015.2,0000.0,0003.10,0006.78,0001.70
2024-04-30 04:31:00,SystemResetWarning,0822.8,4.99,000.00,026.2,025.4,000.0,034.6,028.0,015.4,0000.0,0003.08,0006.43,0001.70
2024-04-30 04:32:00,SystemResetWarning,0822.8,5.00,000.00,026.2,025.4,000.0,034.6,028.0,015.4,0000.0,0003.00,0006.36,0001.69
2024-04-30 04:33:00,SystemResetWarning,0822.8,5.01,000.00,026.2,025.4,000.0,034.6,027.9,015.3,0000.0,0002.99,0006.39,0001.68
2024-04-30 04:34:00,SystemResetWarning,0822.7,5.01,000.00,026.2,025.3,000.0,034.6,027.9,015.4,0000.0,0002.92,0006.18,0001.66
2024-04-30 04:35:00,SystemResetWarning,0822.8,4.99,000.00,026.2,025.3,000.0,034.6,027.9,015.3,0000.0,0002.93,0006.21,0001.64
2024-04-30 04:36:00,SystemResetWarning,0822.8,5.00,000.00,026.2,025.3,000.0,034.6,027.9,015.1,0000.0,0002.92,0006.25,0001.62
2024-04-30 04:37:00,SystemResetWarning,0822.6,5.01,000.00,026.1,025.3,000.0,034.6,027.9,015.3,0000.0,0003.02,0006.51,0001.62
2024-04-30 04:38:00,SystemResetWarning,0822.7,5.01,000.00,026.1,025.3,000.0,034.6,027.9,015.2,0000.0,0003.12,0006.94,0001.64
2024-04-30 04:39:00,SystemResetWarning,0822.7,4.99,000.00,026.1,025.3,000.0,034.6,027.9,015.0,0000.0,0003.13,0006.96,0001.65
2024-04-30 04:40:00,SystemResetWarning,0822.7,4.99,000.00,026.1,025.2,000.0,034.6,027.9,014.9,0000.0,0003.13,0006.93,0001.66
2024-04-30 04:41:00,SystemResetWarning,0822.7,5.00,000.00,026.1,025.2,000.0,034.6,027.9,014.8,0000.0,0003.16,0006.92,0001.67
2024-04-30 04:42:00,SystemResetWarning,0822.6,5.00,000.00,026.1,025.2,000.0,034.6,027.8,015.0,0000.0,0003.22,0007.20,0001.69
2024-04-30 04:43:00,SystemResetWarning,0822.5,5.00,000.00,026.1,025.2,000.0,034.6,027.8,015.0,0000.0,0003.30,0007.36,0001.70
2024-04-30 04:44:00,SystemResetWarning,0823.0,5.00,000.00,026.1,025.2,000.0,034.6,027.8,015.0,0000.0,0003.31,0007.32,0001.71
2024-04-30 04:45:00,SystemResetWarning,0823.1,4.99,000.00,026.1,025.2,000.0,034.6,027.8,015.1,0000.0,0003.33,0007.44,0001.71
2024-04-30 04:46:00,SystemResetWarning,0823.0,4.99,000.00,026.0,025.2,000.0,034.6,027.8,015.3,0000.0,0003.32,0007.44,0001.73
2024-04-30 04:47:00,SystemResetWarning,0822.6,5.01,000.00,026.0,025.2,000.0,034.6,027.8,015.4,0000.0,0003.33,0007.45,0001.73
2024-04-30 04:48:00,SystemResetWarning,0822.4,5.00,000.00,026.0,025.2,000.0,034.6,027.8,015.5,0000.0,0003.30,0007.33,0001.73
2024-04-30 04:49:00,SystemResetWarning,0822.5,4.98,000.00,026.0,025.2,000.0,034.6,027.8,015.4,0000.0,0003.28,0007.21,0001.72
2024-04-30 04:50:00,SystemResetWarning,0822.4,5.00,000.00,026.0,025.2,000.0,034.6,027.8,015.3,0000.0,0003.25,0006.88,0001.72
2024-04-30 04:51:00,SystemResetWarning,0822.4,5.01,000.00,026.0,025.2,000.0,034.6,027.8,015.3,0000.0,0003.24,0006.77,0001.72
2024-04-30 04:52:00,SystemResetWarning,0822.4,5.00,000.00,026.0,025.2,000.0,034.6,027.8,015.2,0000.0,0003.23,0006.75,0001.72
2024-04-30 04:53:00,SystemResetWarning,0822.4,4.99,000.00,026.0,025.2,000.0,034.6,027.9,015.2,0000.0,0003.22,0006.81,0001.70
2024-04-30 04:54:00,SystemResetWarning,0822.4,5.00,000.00,026.0,025.3,000.0,034.6,027.9,015.1,0000.0,0003.18,0006.71,0001.69
2024-04-30 04:55:00,SystemResetWarning,0822.4,5.02,000.00,026.0,025.3,000.0,034.6,027.9,015.2,0000.0,0003.13,0006.54,0001.68
2024-04-30 04:56:00,SystemResetWarning,0822.4,5.01,000.00,026.1,025.3,000.0,034.6,027.9,015.0,0000.0,0003.17,0007.06,0001.70
2024-04-30 04:57:00,SystemResetWarning,0822.4,4.99,000.00,026.1,025.3,000.0,034.6,027.9,015.0,0000.0,0003.23,0007.39,0001.71
2024-04-30 04:58:00,SystemResetWarning,0822.4,4.99,000.00,026.1,025.3,000.0,034.6,027.9,014.9,0000.0,0003.21,0007.34,0001.70
2024-04-30 04:59:00,SystemResetWarning,0822.4,5.00,000.00,026.1,025.3,000.0,034.6,027.9,015.0,0000.0,0003.21,0007.32,0001.72
